Weather History for Corvallis, OR

Change the Weather History Date:

Tuesday, August 5, 2014

  Actual Average Record
Temperature  
Mean Temperature 70 °F -  
Max Temperature 87 °F 83 °F 98 °F (2005)
Min Temperature 53 °F 53 °F 44 °F (2002)
Cooling Degree Days 5    
Growing Degree Days 20 (Base 50)    
Moisture  
Dew Point 53 °F    
Average Humidity 65    
Maximum Humidity 88    
Minimum Humidity 29    
Precipitation  
Precipitation 0.00 in - - ()
Sea Level Pressure  
Sea Level Pressure 30.08 in    
Wind  
Wind Speed 11 mph (NW)    
Max Wind Speed 18 mph    
Max Gust Speed 23 mph    
Visibility 10 miles    
Events      
Averages and records for this station are not official NWS values.
T = Trace of Precipitation, MM = Missing Value Source: NWS Daily Summary

Daily Weather History Graph

Daily Weather History Graph

Search for Another Location

Airport:

Trip Planner

Search our weather history database for the weather conditions in past years. The results will help you decide how hot, cold, wet, or windy it might be!

Date:

Astronomy

Aug. 05, 2014 Rise Set
Actual Time 6:04 AM PDT 8:32 PM PDT
Civil Twilight 5:31 AM PDT 9:05 PM PDT
Nautical Twilight 4:50 AM PDT 9:46 PM PDT
Astronomical Twilight 4:04 AM PDT 10:32 PM PDT
Moon 3:54 PM PDT (8/5) 12:56 AM PDT (8/5)
Length of Visible Light 15h 33m
Length of Day
14h 28m
Waxing Gibbous, 69% of the Moon is Illuminated
Aug 5
Waxing Gibbous
Aug 10
Full
Aug 17
Last Quarter
Aug 25
New
Sep 2
First Quarter

Hourly Weather History & Observations

Time (PDT) Temp. Heat Index Dew Point Humidity Pressure Visibility Wind Dir Wind Speed Gust Speed Precip Events Conditions
12:15 AM 57.2 °F - 51.8 °F 82% 30.02 in - WNW 15.0 mph - N/A   Unknown
12:35 AM 57.2 °F - 51.8 °F 82% 30.02 in - WNW 13.8 mph - N/A   Unknown
12:55 AM 57.2 °F - 51.8 °F 82% 30.03 in - WNW 12.7 mph - N/A   Unknown
1:15 AM 57.2 °F - 51.8 °F 82% 30.03 in - WNW 13.8 mph - N/A   Unknown
1:35 AM 57.2 °F - 51.8 °F 82% 30.03 in - WNW 11.5 mph - N/A   Unknown
1:55 AM 57.2 °F - 51.8 °F 82% 30.03 in - WNW 12.7 mph - N/A   Unknown
2:15 AM 57.2 °F - 51.8 °F 82% 30.03 in 10.0 mi WNW 17.3 mph - N/A   Unknown
2:35 AM 57.2 °F - 51.8 °F 82% 30.03 in 10.0 mi WNW 16.1 mph - N/A   Unknown
2:55 AM 57.2 °F - 51.8 °F 82% 30.04 in 10.0 mi NW 15.0 mph 21.9 mph N/A   Unknown
3:15 AM 55.4 °F - 51.8 °F 88% 30.04 in 10.0 mi WNW 15.0 mph - N/A   Unknown
3:35 AM 55.4 °F - 51.8 °F 88% 30.04 in 10.0 mi WNW 16.1 mph - N/A   Unknown
3:55 AM 55.4 °F - 51.8 °F 88% 30.04 in 10.0 mi WNW 13.8 mph - N/A   Unknown
4:15 AM 55.4 °F - 51.8 °F 88% 30.05 in 10.0 mi NW 15.0 mph - N/A   Unknown
4:35 AM 55.4 °F - 51.8 °F 88% 30.06 in 10.0 mi WNW 12.7 mph - N/A   Unknown
4:55 AM 55.4 °F - 51.8 °F 88% 30.06 in 10.0 mi WNW 11.5 mph - N/A   Unknown
5:15 AM 55.4 °F - 51.8 °F 88% 30.07 in 10.0 mi WNW 12.7 mph - N/A   Unknown
5:35 AM 55.4 °F - 51.8 °F 88% 30.08 in 10.0 mi NW 11.5 mph - N/A   Unknown
5:55 AM 55.4 °F - 51.8 °F 88% 30.08 in 10.0 mi NW 10.4 mph - N/A   Unknown
6:15 AM 53.6 °F - 50.0 °F 88% 30.09 in 10.0 mi WNW 10.4 mph - N/A   Unknown
6:35 AM 55.4 °F - 51.8 °F 88% 30.09 in 10.0 mi NW 9.2 mph - N/A   Unknown
6:55 AM 55.4 °F - 50.0 °F 82% 30.09 in 10.0 mi WNW 9.2 mph - N/A   Unknown
7:15 AM 55.4 °F - 51.8 °F 88% 30.10 in 10.0 mi NW 10.4 mph - N/A   Unknown
7:35 AM 55.4 °F - 51.8 °F 88% 30.11 in 10.0 mi NW 8.1 mph - N/A   Unknown
7:55 AM 57.2 °F - 51.8 °F 82% 30.12 in 10.0 mi NNW 4.6 mph - N/A   Unknown
8:15 AM 57.2 °F - 51.8 °F 82% 30.12 in 10.0 mi NNW 5.8 mph - N/A   Unknown
8:35 AM 57.2 °F - 51.8 °F 82% 30.13 in 10.0 mi NNW 5.8 mph - N/A   Unknown
8:55 AM 59.0 °F - 51.8 °F 77% 30.13 in 10.0 mi NNW 3.5 mph - N/A   Unknown
9:15 AM 60.8 °F - 51.8 °F 72% 30.13 in 10.0 mi Calm Calm - N/A   Unknown
9:35 AM 62.6 °F - 53.6 °F 72% 30.13 in 10.0 mi NE 3.5 mph - N/A   Unknown
9:55 AM 64.4 °F - 53.6 °F 68% 30.12 in 10.0 mi Calm Calm - N/A   Unknown
10:15 AM 64.4 °F - 51.8 °F 64% 30.12 in 10.0 mi Calm Calm - N/A   Unknown
10:35 AM 64.4 °F - 51.8 °F 64% 30.13 in 10.0 mi Calm Calm - N/A   Unknown
10:55 AM 66.2 °F - 53.6 °F 64% 30.13 in 10.0 mi Calm Calm - N/A   Unknown
11:15 AM 69.8 °F - 53.6 °F 56% 30.12 in 10.0 mi NE 3.5 mph - N/A   Unknown
11:35 AM 69.8 °F - 53.6 °F 56% 30.12 in 10.0 mi North 5.8 mph - N/A   Unknown
11:55 AM 71.6 °F - 51.8 °F 50% 30.11 in 10.0 mi Calm Calm - N/A   Unknown
12:15 PM 71.6 °F - 51.8 °F 50% 30.11 in 10.0 mi NNW 4.6 mph - N/A   Unknown
12:35 PM 75.2 °F - 51.8 °F 44% 30.10 in 10.0 mi ENE 4.6 mph - N/A   Unknown
12:55 PM 75.2 °F - 51.8 °F 44% 30.10 in 10.0 mi North 4.6 mph - N/A   Unknown
1:15 PM 77.0 °F - 53.6 °F 44% 30.09 in 10.0 mi North 4.6 mph - N/A   Unknown
1:35 PM 78.8 °F - 51.8 °F 39% 30.09 in 10.0 mi North 4.6 mph - N/A   Unknown
1:55 PM 78.8 °F - 53.6 °F 42% 30.08 in 10.0 mi North 6.9 mph - N/A   Unknown
2:15 PM 80.6 °F 80.3 °F 53.6 °F 39% 30.08 in 10.0 mi Calm Calm - N/A   Unknown
2:35 PM 82.4 °F - 51.8 °F 35% 30.07 in 10.0 mi ESE 3.5 mph - N/A   Unknown
2:55 PM 84.2 °F 82.8 °F 53.6 °F 35% 30.06 in 10.0 mi ENE 6.9 mph - N/A   Unknown
3:35 PM 86.0 °F 84.2 °F 53.6 °F 33% 30.05 in 10.0 mi ENE 4.6 mph - N/A   Unknown
3:55 PM 84.2 °F - 51.8 °F 33% 30.05 in 10.0 mi NNW 4.6 mph - N/A   Unknown
4:15 PM 86.0 °F - 51.8 °F 31% 30.04 in 10.0 mi NNE 5.8 mph - N/A   Unknown
4:35 PM 87.8 °F - 51.8 °F 29% 30.04 in 10.0 mi West 5.8 mph - N/A   Unknown
4:55 PM 86.0 °F - 51.8 °F 31% 30.03 in 10.0 mi NNW 6.9 mph - N/A   Unknown
5:15 PM 86.0 °F - 51.8 °F 31% 30.04 in 10.0 mi WNW 10.4 mph - N/A   Unknown
5:35 PM 84.2 °F 82.8 °F 53.6 °F 35% 30.04 in 10.0 mi NNW 9.2 mph - N/A   Unknown
5:55 PM 82.4 °F 81.7 °F 55.4 °F 39% 30.04 in 10.0 mi NW 11.5 mph - N/A   Unknown
6:15 PM 82.4 °F 82.0 °F 57.2 °F 42% 30.05 in 10.0 mi NW 12.7 mph - N/A   Unknown
6:35 PM 80.6 °F 80.8 °F 57.2 °F 45% 30.05 in 10.0 mi NW 10.4 mph - N/A   Unknown
6:55 PM 78.8 °F - 57.2 °F 47% 30.05 in 10.0 mi NW 15.0 mph - N/A   Unknown
7:15 PM 77.0 °F - 55.4 °F 47% 30.05 in 10.0 mi NW 17.3 mph - N/A   Unknown
7:55 PM 73.4 °F - 55.4 °F 53% 30.06 in 9.0 mi WNW 18.4 mph 23.0 mph N/A   Unknown
8:15 PM 71.6 °F - 55.4 °F 57% 30.07 in 10.0 mi WNW 16.1 mph - N/A   Unknown
8:35 PM 69.8 °F - 55.4 °F 60% 30.07 in 10.0 mi WNW 13.8 mph - N/A   Unknown
8:55 PM 68.0 °F - 55.4 °F 64% 30.08 in 10.0 mi WNW 12.7 mph - N/A   Unknown
9:15 PM 66.2 °F - 55.4 °F 68% 30.08 in 10.0 mi WNW 13.8 mph 17.3 mph N/A   Unknown
9:35 PM 64.4 °F - 55.4 °F 73% 30.09 in - WNW 16.1 mph - N/A   Unknown
9:55 PM 64.4 °F - 55.4 °F 73% 30.09 in - WNW 16.1 mph - N/A   Unknown
10:15 PM 62.6 °F - 55.4 °F 77% 30.09 in - WNW 16.1 mph 21.9 mph N/A   Unknown
10:35 PM 62.6 °F - 55.4 °F 77% 30.09 in - WNW 15.0 mph - N/A   Unknown
10:55 PM 62.6 °F - 55.4 °F 77% 30.10 in - WNW 18.4 mph 23.0 mph N/A   Unknown
11:15 PM 62.6 °F - 55.4 °F 77% 30.10 in - WNW 16.1 mph 20.7 mph N/A   Unknown
11:35 PM 62.6 °F - 55.4 °F 77% 30.11 in - WNW 15.0 mph - N/A   Unknown
11:55 PM 60.8 °F - 55.4 °F 82% 30.12 in - WNW 11.5 mph - N/A   Unknown